| time (UTC) | temp F | wind direction | speed knots | gust knots | rain 1hr in | rain 24hr in | rain mn in | humidity % | barometer mb |
| 20260504184504 | 78 | 171 | 0.0 | 3.5 | 0.00 | 0.00 | 0.00 | 34 | 1013.6 |
| 20260504184009 | 78 | 147 | 0.0 | 4.3 | 0.00 | 0.00 | 0.00 | 35 | 1013.6 |
| 20260504183604 | 78 | 169 | 0.0 | 4.3 | 0.00 | 0.00 | 0.00 | 35 | 1013.7 |
| 20260504183004 | 78 | 203 | 0.0 | 0.0 | 0.00 | 0.00 | 0.00 | 33 | 1013.7 |
| 20260504182509 | 78 | 105 | 0.0 | 0.0 | 0.00 | 0.00 | 0.00 | 36 | 1013.8 |
| 20260504182103 | 78 | 20 | 0.0 | 0.0 | 0.00 | 0.00 | 0.00 | 34 | 1013.8 |
| 20260504181503 | 78 | 219 | 0.0 | 1.7 | 0.00 | 0.00 | 0.00 | 34 | 1013.8 |
| 20260504181010 | 77 | 179 | 0.0 | 5.2 | 0.00 | 0.00 | 0.00 | 36 | 1013.9 |
| 20260504180604 | 77 | 183 | 0.0 | 5.2 | 0.00 | 0.00 | 0.00 | 36 | 1014.0 |
| 20260504180007 | 78 | 181 | 0.0 | 4.3 | 0.00 | 0.00 | 0.00 | 34 | 1014.1 |
| 20260504175512 | 77 | 167 | 0.0 | 4.3 | 0.00 | 0.00 | 0.00 | 36 | 1014.0 |
| 20260504175103 | 77 | 160 | 0.0 | 0.9 | 0.00 | 0.00 | 0.00 | 35 | 1014.0 |
| 20260504174504 | 77 | 179 | 0.0 | 4.3 | 0.00 | 0.00 | 0.00 | 36 | 1014.1 |
| 20260504174009 | 78 | 169 | 0.0 | 2.6 | 0.00 | 0.00 | 0.00 | 35 | 1014.2 |
| 20260504173606 | 78 | 157 | 0.0 | 2.6 | 0.00 | 0.00 | 0.00 | 36 | 1014.3 |
| 20260504173003 | 77 | 124 | 0.0 | 3.5 | 0.00 | 0.00 | 0.00 | 34 | 1014.3 |
| 20260504172508 | 77 | 166 | 0.0 | 3.5 | 0.00 | 0.00 | 0.00 | 35 | 1014.4 |
| 20260504172103 | 77 | 254 | 0.0 | 0.0 | 0.00 | 0.00 | 0.00 | 35 | 1014.4 |
| 20260504171503 | 76 | 143 | 0.0 | 0.9 | 0.00 | 0.00 | 0.00 | 37 | 1014.5 |
| 20260504171009 | 76 | 174 | 0.0 | 5.2 | 0.00 | 0.00 | 0.00 | 37 | 1014.5 |
| 20260504170602 | 75 | 150 | 0.0 | 5.2 | 0.00 | 0.00 | 0.00 | 37 | 1014.7 |
| 20260504151010 | 69 | 184 | 0.0 | 0.0 | 0.00 | 0.00 | 0.00 | 43 | 1016.2 |
| 20260504150604 | 68 | 179 | 0.0 | 3.5 | 0.00 | 0.00 | 0.00 | 44 | 1016.2 |
| 20260504141008 | 60 | 206 | 0.0 | 0.9 | 0.00 | 0.00 | 0.00 | 65 | 1016.2 |
| 20260504140604 | 59 | 206 | 0.0 | 0.9 | 0.00 | 0.00 | 0.00 | 65 | 1016.2 |
| 20260504130603 | 49 | 181 | 0.0 | 0.9 | 0.00 | 0.00 | 0.00 | 87 | 1016.2 |
| 20260504110605 | 38 | 169 | 0.0 | 0.0 | 0.00 | 0.00 | 0.00 | 93 | 1016.3 |
| 20260504100603 | 39 | 169 | 0.0 | 0.0 | 0.00 | 0.00 | 0.00 | 92 | 1016.2 |
| 20260504081503 | 40 | 169 | 0.0 | 0.0 | 0.00 | 0.00 | 0.00 | 90 | 1016.1 |
| 20260504081010 | 41 | 169 | 0.0 | 0.0 | 0.00 | 0.00 | 0.00 | 90 | 1016.1 |
| 20260504080603 | 41 | 169 | 0.0 | 0.0 | 0.00 | 0.00 | 0.00 | 90 | 1016.0 |
| 20260504050602 | 43 | 169 | 0.0 | 0.0 | 0.00 | 0.00 | 0.00 | 83 | 1016.2 |
| 20260504050002 | 43 | 169 | 0.0 | 0.0 | 0.00 | 0.00 | 0.00 | 83 | 1016.2 |
| 20260504045511 | 43 | 169 | 0.0 | 0.0 | 0.00 | 0.00 | 0.00 | 83 | 1016.2 |
| 20260504045102 | 43 | 169 | 0.0 | 0.0 | 0.00 | 0.00 | 0.00 | 82 | 1016.1 |
| 20260504044502 | 43 | 169 | 0.0 | 0.0 | 0.00 | 0.00 | 0.00 | 82 | 1016.1 |
| 20260504044010 | 43 | 169 | 0.0 | 0.0 | 0.00 | 0.00 | 0.00 | 82 | 1016.0 |
| 20260504043604 | 43 | 169 | 0.0 | 0.0 | 0.00 | 0.00 | 0.00 | 82 | 1016.0 |
| 20260504043110 | 43 | 169 | 0.0 | 0.0 | 0.00 | 0.00 | 0.00 | 82 | 1016.1 |
| 20260504042509 | 43 | 169 | 0.0 | 0.0 | 0.00 | 0.00 | 0.00 | 82 | 1016.1 |
| 20260504042102 | 43 | 169 | 0.0 | 0.0 | 0.00 | 0.00 | 0.00 | 82 | 1016.1 |
| 20260504041503 | 44 | 169 | 0.0 | 0.0 | 0.00 | 0.00 | 0.00 | 82 | 1016.1 |
| 20260504041003 | 44 | 169 | 0.0 | 0.0 | 0.00 | 0.00 | 0.00 | 81 | 1016.1 |
| 20260504040605 | 44 | 169 | 0.0 | 0.0 | 0.00 | 0.00 | 0.00 | 81 | 1016.1 |
| 20260504040003 | 44 | 169 | 0.0 | 0.0 | 0.00 | 0.00 | 0.00 | 81 | 1016.2 |
| 20260504035512 | 44 | 169 | 0.0 | 0.0 | 0.00 | 0.00 | 0.00 | 81 | 1016.1 |
| 20260504035103 | 44 | 169 | 0.0 | 0.0 | 0.00 | 0.00 | 0.00 | 80 | 1016.2 |
| 20260504034502 | 44 | 169 | 0.0 | 0.0 | 0.00 | 0.00 | 0.00 | 80 | 1016.2 |
| 20260504034011 | 44 | 169 | 0.0 | 0.0 | 0.00 | 0.00 | 0.00 | 80 | 1016.3 |
| 20260504033602 | 45 | 169 | 0.0 | 0.0 | 0.00 | 0.00 | 0.00 | 79 | 1016.3 |
| 20260504033006 | 45 | 169 | 0.0 | 0.0 | 0.00 | 0.00 | 0.00 | 79 | 1016.2 |
| 20260504032513 | 45 | 169 | 0.0 | 0.0 | 0.00 | 0.00 | 0.00 | 78 | 1016.2 |
| 20260504032103 | 45 | 169 | 0.0 | 0.0 | 0.00 | 0.00 | 0.00 | 78 | 1016.3 |
| 20260504031505 | 45 | 169 | 0.0 | 0.0 | 0.00 | 0.00 | 0.00 | 78 | 1016.3 |
| 20260504031009 | 45 | 169 | 0.0 | 0.0 | 0.00 | 0.00 | 0.00 | 78 | 1016.4 |
| 20260504030605 | 45 | 169 | 0.0 | 0.0 | 0.00 | 0.00 | 0.00 | 77 | 1016.4 |
| 20260504030002 | 45 | 169 | 0.0 | 0.0 | 0.00 | 0.00 | 0.00 | 77 | 1016.3 |
| 20260504025510 | 46 | 169 | 0.0 | 0.0 | 0.00 | 0.00 | 0.00 | 77 | 1016.2 |
| 20260504025104 | 46 | 169 | 0.0 | 0.0 | 0.00 | 0.00 | 0.00 | 76 | 1016.2 |
| 20260504024503 | 46 | 169 | 0.0 | 0.0 | 0.00 | 0.00 | 0.00 | 76 | 1016.2 |
| 20260504024008 | 46 | 169 | 0.0 | 0.0 | 0.00 | 0.00 | 0.00 | 75 | 1016.1 |
| 20260504023604 | 46 | 169 | 0.0 | 0.0 | 0.00 | 0.00 | 0.00 | 75 | 1016.0 |
| 20260504023003 | 46 | 169 | 0.0 | 0.0 | 0.00 | 0.00 | 0.00 | 74 | 1016.0 |
| 20260504022509 | 47 | 169 | 0.0 | 0.0 | 0.00 | 0.00 | 0.00 | 74 | 1016.0 |
| 20260504022103 | 47 | 169 | 0.0 | 0.0 | 0.00 | 0.00 | 0.00 | 74 | 1016.0 |
| 20260504021502 | 47 | 169 | 0.0 | 0.0 | 0.00 | 0.00 | 0.00 | 73 | 1015.8 |
| 20260504021009 | 47 | 169 | 0.0 | 0.0 | 0.00 | 0.00 | 0.00 | 73 | 1015.7 |
| 20260504020603 | 47 | 169 | 0.0 | 0.0 | 0.00 | 0.00 | 0.00 | 72 | 1015.7 |
| 20260504020006 | 48 | 169 | 0.0 | 0.0 | 0.00 | 0.00 | 0.00 | 72 | 1015.6 |
| 20260504015509 | 48 | 169 | 0.0 | 0.0 | 0.00 | 0.00 | 0.00 | 71 | 1015.6 |
| 20260504015103 | 48 | 169 | 0.0 | 0.0 | 0.00 | 0.00 | 0.00 | 70 | 1015.5 |
| 20260504014503 | 49 | 169 | 0.0 | 0.0 | 0.00 | 0.00 | 0.00 | 70 | 1015.5 |
| 20260504014009 | 49 | 169 | 0.0 | 0.0 | 0.00 | 0.00 | 0.00 | 69 | 1015.5 |
| 20260504013603 | 49 | 169 | 0.0 | 0.0 | 0.00 | 0.00 | 0.00 | 68 | 1015.5 |
| 20260504013005 | 50 | 169 | 0.0 | 0.0 | 0.00 | 0.00 | 0.00 | 68 | 1015.4 |
| 20260504012510 | 50 | 169 | 0.0 | 0.0 | 0.00 | 0.00 | 0.00 | 67 | 1015.4 |
| 20260504012102 | 50 | 169 | 0.0 | 0.0 | 0.00 | 0.00 | 0.00 | 66 | 1015.4 |
| 20260504011502 | 51 | 169 | 0.0 | 0.0 | 0.00 | 0.00 | 0.00 | 66 | 1015.4 |
| 20260504011008 | 51 | 169 | 0.0 | 0.0 | 0.00 | 0.00 | 0.00 | 65 | 1015.3 |
| 20260504010605 | 51 | 169 | 0.0 | 0.0 | 0.00 | 0.00 | 0.00 | 64 | 1015.3 |
| 20260504010002 | 52 | 169 | 0.0 | 0.0 | 0.00 | 0.00 | 0.00 | 63 | 1015.2 |
| 20260504005508 | 52 | 169 | 0.0 | 0.0 | 0.00 | 0.00 | 0.00 | 62 | 1015.1 |
| 20260504005105 | 53 | 169 | 0.0 | 0.0 | 0.00 | 0.00 | 0.00 | 61 | 1015.2 |
| 20260504004502 | 53 | 169 | 0.0 | 0.0 | 0.00 | 0.00 | 0.00 | 59 | 1015.1 |
| 20260504004009 | 54 | 169 | 0.0 | 0.0 | 0.00 | 0.00 | 0.00 | 58 | 1015.0 |
| 20260504003604 | 54 | 169 | 0.0 | 0.0 | 0.00 | 0.00 | 0.00 | 57 | 1015.1 |
| 20260504003003 | 55 | 169 | 0.0 | 0.0 | 0.00 | 0.00 | 0.00 | 56 | 1015.0 |
| 20260504002509 | 56 | 169 | 0.0 | 0.0 | 0.00 | 0.00 | 0.00 | 54 | 1015.0 |
| 20260504002102 | 56 | 169 | 0.0 | 0.0 | 0.00 | 0.00 | 0.00 | 53 | 1014.9 |
| 20260504001502 | 57 | 169 | 0.0 | 0.0 | 0.00 | 0.00 | 0.00 | 51 | 1014.9 |
| 20260504001009 | 57 | 169 | 0.0 | 0.0 | 0.00 | 0.00 | 0.00 | 50 | 1014.8 |
| 20260504000604 | 58 | 169 | 0.0 | 0.0 | 0.00 | 0.00 | 0.00 | 49 | 1014.8 |
| 20260504000008 | 58 | 169 | 0.0 | 0.0 | 0.00 | 0.00 | 0.00 | 47 | 1014.8 |
| 20260503235510 | 59 | 169 | 0.0 | 0.0 | 0.00 | 0.00 | 0.00 | 46 | 1014.8 |
| 20260503235104 | 59 | 169 | 0.0 | 0.0 | 0.00 | 0.00 | 0.00 | 45 | 1014.9 |
| 20260503234502 | 60 | 169 | 0.0 | 0.0 | 0.00 | 0.00 | 0.00 | 44 | 1014.8 |
| 20260503234009 | 60 | 169 | 0.0 | 0.0 | 0.00 | 0.00 | 0.00 | 44 | 1014.9 |
| 20260503233604 | 61 | 169 | 0.0 | 0.0 | 0.00 | 0.00 | 0.00 | 41 | 1014.8 |
| 20260503233006 | 61 | 169 | 0.0 | 0.0 | 0.00 | 0.00 | 0.00 | 39 | 1014.8 |
| 20260503232509 | 61 | 169 | 0.0 | 0.0 | 0.00 | 0.00 | 0.00 | 40 | 1014.8 |
| 20260503232102 | 62 | 169 | 0.0 | 0.0 | 0.00 | 0.00 | 0.00 | 37 | 1014.8 |
| 20260503231502 | 62 | 169 | 0.0 | 0.0 | 0.00 | 0.00 | 0.00 | 39 | 1014.7 |
| 20260503231009 | 62 | 169 | 0.0 | 0.9 | 0.00 | 0.00 | 0.00 | 39 | 1014.8 |
| 20260503230604 | 62 | 169 | 0.0 | 0.9 | 0.00 | 0.00 | 0.00 | 38 | 1014.8 |
| 20260503230002 | 63 | 200 | 0.0 | 0.0 | 0.00 | 0.00 | 0.00 | 38 | 1014.8 |
| 20260503225509 | 63 | 200 | 0.0 | 0.0 | 0.00 | 0.00 | 0.00 | 36 | 1014.8 |
| 20260503225103 | 63 | 185 | 0.0 | 0.0 | 0.00 | 0.00 | 0.00 | 37 | 1015.0 |
| 20260503224502 | 63 | 143 | 0.0 | 0.0 | 0.00 | 0.00 | 0.00 | 38 | 1015.0 |
| 20260503224009 | 63 | 198 | 0.0 | 4.3 | 0.00 | 0.00 | 0.00 | 35 | 1015.0 |
| 20260503223604 | 63 | 231 | 0.0 | 4.3 | 0.00 | 0.00 | 0.00 | 35 | 1015.0 |
| 20260503223003 | 63 | 159 | 0.0 | 0.9 | 0.00 | 0.00 | 0.00 | 34 | 1015.0 |
| 20260503222508 | 64 | 166 | 0.0 | 0.9 | 0.00 | 0.00 | 0.00 | 34 | 1015.1 |
| 20260503222104 | 64 | 181 | 0.0 | 0.0 | 0.00 | 0.00 | 0.00 | 34 | 1015.1 |
| 20260503221502 | 64 | 169 | 0.0 | 0.0 | 0.00 | 0.00 | 0.00 | 34 | 1015.1 |
| 20260503221009 | 64 | 77 | 0.0 | 0.9 | 0.00 | 0.00 | 0.00 | 33 | 1015.2 |
| 20260503220602 | 64 | 187 | 0.0 | 1.7 | 0.00 | 0.00 | 0.00 | 38 | 1015.2 |
| 20260503220003 | 64 | 150 | 0.0 | 4.3 | 0.00 | 0.00 | 0.00 | 34 | 1015.4 |
| 20260503215507 | 64 | 190 | 0.0 | 5.2 | 0.00 | 0.00 | 0.00 | 32 | 1015.4 |
| 20260503215102 | 64 | 167 | 0.0 | 5.2 | 0.00 | 0.00 | 0.00 | 34 | 1015.5 |
| 20260503214502 | 65 | 161 | 0.0 | 1.7 | 0.00 | 0.00 | 0.00 | 32 | 1015.4 |
| 20260503214014 | 65 | 154 | 0.0 | 0.0 | 0.00 | 0.00 | 0.00 | 32 | 1015.5 |
| 20260503213605 | 65 | 155 | 0.0 | 0.9 | 0.00 | 0.00 | 0.00 | 32 | 1015.5 |
| 20260503213003 | 65 | 205 | 0.0 | 0.9 | 0.00 | 0.00 | 0.00 | 32 | 1015.5 |
| 20260503212509 | 66 | 187 | 0.0 | 0.0 | 0.00 | 0.00 | 0.00 | 32 | 1015.6 |
| 20260503212103 | 66 | 180 | 0.0 | 6.1 | 0.00 | 0.00 | 0.00 | 31 | 1015.6 |
| 20260503211502 | 67 | 232 | 0.0 | 6.1 | 0.00 | 0.00 | 0.00 | 31 | 1015.8 |
| 20260503211010 | 67 | 183 | 0.0 | 3.5 | 0.00 | 0.00 | 0.00 | 32 | 1015.7 |
| 20260503210602 | 68 | 69 | 0.0 | 3.5 | 0.00 | 0.00 | 0.00 | 29 | 1015.7 |
| 20260503210003 | 68 | 43 | 0.0 | 0.0 | 0.00 | 0.00 | 0.00 | 27 | 1015.7 |
| 20260503205509 | 68 | 151 | 0.0 | 3.5 | 0.00 | 0.00 | 0.00 | 28 | 1015.7 |
| 20260503205104 | 68 | 171 | 0.0 | 6.1 | 0.00 | 0.00 | 0.00 | 29 | 1015.7 |
| 20260503204503 | 69 | 147 | 0.9 | 7.0 | 0.00 | 0.00 | 0.00 | 29 | 1015.8 |
| 20260503204008 | 69 | 182 | 0.9 | 7.0 | 0.00 | 0.00 | 0.00 | 26 | 1015.8 |
| 20260503203602 | 69 | 229 | 0.0 | 4.3 | 0.00 | 0.00 | 0.00 | 29 | 1015.9 |
| 20260503203003 | 68 | 346 | 0.9 | 7.8 | 0.00 | 0.00 | 0.00 | 28 | 1016.1 |
| 20260503202508 | 68 | 207 | 0.9 | 7.8 | 0.00 | 0.00 | 0.00 | 28 | 1016.0 |
| 20260503202106 | 69 | 169 | 0.9 | 7.0 | 0.00 | 0.00 | 0.00 | 28 | 1016.2 |
| 20260503201502 | 69 | 27 | 0.0 | 3.5 | 0.00 | 0.00 | 0.00 | 29 | 1016.3 |
| 20260503201008 | 68 | 157 | 0.0 | 2.6 | 0.00 | 0.00 | 0.00 | 30 | 1016.2 |
| 20260503200606 | 68 | 186 | 0.0 | 2.6 | 0.00 | 0.00 | 0.00 | 29 | 1016.4 |
| 20260503200002 | 68 | 169 | 0.0 | 4.3 | 0.00 | 0.00 | 0.00 | 27 | 1016.5 |
| 20260503195508 | 69 | 143 | 0.9 | 4.3 | 0.00 | 0.00 | 0.00 | 27 | 1016.6 |
| 20260503195102 | 69 | 53 | 0.0 | 7.0 | 0.00 | 0.00 | 0.00 | 30 | 1016.7 |
| 20260503194503 | 68 | 173 | 0.0 | 7.8 | 0.00 | 0.00 | 0.00 | 30 | 1016.6 |
| 20260503194009 | 68 | 349 | 0.9 | 7.8 | 0.00 | 0.00 | 0.00 | 29 | 1016.8 |
| 20260503193602 | 68 | 179 | 0.0 | 4.3 | 0.00 | 0.00 | 0.00 | 29 | 1016.8 |
| 20260503193006 | 68 | 359 | 1.7 | 5.2 | 0.00 | 0.00 | 0.00 | 29 | 1016.8 |
| 20260503192512 | 68 | 168 | 1.7 | 5.2 | 0.00 | 0.00 | 0.00 | 29 | 1017.0 |
| 20260503192102 | 68 | 161 | 0.9 | 3.5 | 0.00 | 0.00 | 0.00 | 30 | 1017.0 |
| 20260503191502 | 67 | 309 | 0.0 | 6.1 | 0.00 | 0.00 | 0.00 | 30 | 1017.0 |
| 20260503191009 | 67 | 185 | 1.7 | 6.1 | 0.00 | 0.00 | 0.00 | 29 | 1017.1 |
| 20260503190604 | 67 | 197 | 0.0 | 4.3 | 0.00 | 0.00 | 0.00 | 31 | 1017.2 |
| 20260503190005 | 66 | 167 | 0.0 | 4.3 | 0.00 | 0.00 | 0.00 | 31 | 1017.3 |
| 20260503185508 | 66 | 299 | 0.0 | 3.5 | 0.00 | 0.00 | 0.00 | 29 | 1017.5 |
| 20260503185103 | 65 | 216 | 0.9 | 5.2 | 0.00 | 0.00 | 0.00 | 29 | 1017.5 |